User: anonymous   Login
Location: Im Fang
(46.6019°N, 7.2397°E)
Time: 13:34:25
(UTC+00:00)
Language:

Cosmos 2297 Rocket - Orbit

View from above orbital plane
View from above orbital plane
View from above satellite
View from above satellite

Ground track
Ground track

The orbit data is extracted from the following two-line orbital elements,

1 23405U 94077B   20052.79062562 -.00000273 +00000-0 -11580-3 0  9999
2 23405 070.9840 315.7581 0005065 272.0221 088.0322 14.15214577303855
Epoch (UTC): 21 February 2020 18:58:30
Eccentricity: 0.0005065
inclination: 70.9840°
perigee height: 838 km
apogee height: 845 km
right ascension of ascending node: 315.7581°
argument of perigee: 272.0221°
revolutions per day: 14.15214577
mean anomaly at epoch: 88.0322°
orbit number at epoch: 30385

The dashed part of the orbit path shows where the satellite is in the earth's shadow,  

DLR